Temp
67 65 63 61 61 59 56 56 53 52 56 55 54 54 53 53 55 56 55 55 54 53 55 57 58 60 55 56 57 60 60 61 56 55 56 56 55 55 57 60 62 63 61
67 61 61 60 57 55 54 53 53 52 53 54 54 52 52 52 53 53 53 53 54 54 55 55 58 62 58 57 57 58 61 64 60 54 53 53 53 53 54 54 56 61 61
62 60 61 57 52 51 54 52 52 51 52 54 52 50 51 51 53 53 52 51 52 53 55 54 56 57 56 56 55 55 60 63 63 56 51 53 52 51 52 53 54 55 57
59 61 54 51 50 52 52 52 52 51 50 50 51 51 52 53 52 51 51 51 50 51 51 52 57 57 55 55 59 58 59 58 60 57 52 50 50 51 52 49 48 52 52
59 53 50 50 52 52 52 51 50 49 49 50 50 50 51 53 51 52 53 52 51 49 51 52 54 53 53 53 56 54 55 54 54 53 50 49 48 48 47 49 48 48 49
50 50 51 50 52 53 55 53 50 49 52 57 57 59 58 57 48 49 50 53 49 49 49 49 51 53 51 50 50 50 50 49 50 51 50 48 48 49 48 47 47 47 47
50 50 50 50 54 55 55 54 54 52 55 57 58 59 56 58 46 46 49 49 49 49 48 49 48 50 49 48 48 50 49 48 48 47 49 49 48 49 50 48 48 53 57
48 49 51 56 55 56 56 57 58 58 56 57 56 56 56 57 46 45 48 53 52 51 49 50 49 49 48 48 48 48 46 48 46 46 47 49 51 50 50 50 51 52 57
50 55 55 55 56 56 57 57 57 57 57 58 59 59 57 58 44 45 50 57 57 55 50 49 49 50 45 46 56 50 48 49 48 47 46 45 45 47 50 50 51 54 55
54 55 57 56 57 57 58 55 56 59 59 60 59 59 53 55 43 44 51 58 53 52 54 51 45 48 44 45 57 56 53 49 48 47 48 48 48 48 50 52 55 60 56
55 53 58 57 58 59 59 58 59 59 58 57 58 58 57 52 52 44 44 56 57 57 55 52 51 43 43 43 47 54 49 52 49 46 46 46 47 47 48 51 59 56 59
58 58 58 59 62 61 58 56 59 57 56 56 55 55 54 51 46 44 43 45 50 52 50 49 49 42 42 43 49 42 43 49 53 45 45 45 46 46 50 54 53 52 52
57 57 59 59 61 61 59 58 58 57 57 57 56 56 55 54 50 44 43 44 45 53 54 47 43 43 43 46 43 43 45 49 50 46 44 46 46 48 50 50 50 49 48
59 59 60 60 57 60 61 59 58 57 53 56 55 52 53 53 54 51 56 56 46 52 48 52 47 46 44 46 48 48 47 47 47 48 47 49 50 48 47 48 47 47 44
59 59 59 60 61 57 57 56 56 53 51 55 53 54 53 53 53 45 47 55 53 49 50 51 49 47 45 45 45 45 46 46 46 47 47 46 46 46 44 48 48 45 42
57 60 60 59 60 61 55 54 41 42 41 40 40 42 48 41 40 40 40 40 41 42 47 45 44 43 42 42 43 43 43 44 45 46 46 46 44 44 45 46 47 45 42
56 56 58 59 61 57 57 54 49 50 43 41 40 40 39 39 39 40 40 40 40 45 46 44 42 42 42 43 42 42 42 43 47 47 46 45 46 46 47 46 44 44 43
56 47 59 60 54 58 55 57 51 48 45 47 44 43 40 40 40 40 40 44 46 46 47 45 43 43 43 43 43 43 43 44 44 45 46 47 48 48 47 44 44 43 43
60 60 61 59 58 55 55 53 48 45 44 44 45 44 44 41 41 41 42 45 45 45 45 44 44 45 45 44 44 44 45 45 46 47 47 47 48 48 45 44 43 40 41
59 48 52 58 57 56 54 49 48 46 44 43 41 39 42 45 44 44 44 44 44 44 45 46 46 47 48 48 48 46 45 45 46 46 47 47 47 49 48 47 45 44 44
61 58 49 59 57 55 54 50 47 46 44 43 42 40 35 42 42 42 42 43 43 44 46 46 49 51 52 51 50 48 46 45 46 47 47 48 52 53 53 48 47 48 50
60 58 58 59 57 55 52 48 46 45 44 43 43 43 37 43 43 43 43 44 46 47 48 50 50 50 53 55 53 49 49 47 50 50 52 55 56 53 53 54 54 54 57
61 58 57 56 55 49 50 48 47 45 44 44 44 44 45 45 45 46 46 46 46 46 49 55 54 55 56 56 55 53 53 56 59 56 56 58 58 59 62 62 59 53 51
62 61 60 60 58 57 56 51 48 43 46 46 46 48 51 53 53 52 52 52 52 53 54 51 51 55 52 51 56 55 54 61 64 64 63 59 53 53 57 58 54 54 61
62 60 60 59 59 57 54 53 53 52 54 56 57 58 60 59 58 58 57 59 55 55 56 54 52 51 50 51 54 54 39 38 51 47 59 58 56 57 66 68 67 67 67
61 60 60 61 60 60 59 57 58 59 59 60 61 61 63 64 64 64 64 65 62 62 62 61 61 60 60 54 51 39 36 38 54 43 66 69 68 68 69 69 69 69 68
MSLP
1017.11 1016.88 1016.65 1016.52 1016.22 1016.07 1015.96 1015.67 1015.24 1014.80 1014.00 1013.68 1013.32 1012.79 1012.41 1012.16 1011.72 1011.16 1010.94 1010.80 1010.46 1010.07 1009.65 1009.23 1008.82 1008.67 1008.72 1008.46 1007.64 1007.99 1007.69 1007.25 1007.13 1007.65 1008.24 1008.61 1009.23 1009.65 1010.03 1010.11 1010.29 1010.34 1010.98
1016.82 1016.90 1016.65 1016.49 1016.37 1016.22 1015.87 1015.79 1015.35 1014.85 1014.31 1013.83 1013.49 1013.11 1012.67 1012.39 1012.02 1011.57 1011.24 1011.02 1010.59 1010.22 1009.76 1009.43 1008.97 1008.58 1008.56 1008.37 1008.02 1007.64 1007.43 1006.92 1006.98 1007.43 1008.53 1009.03 1009.53 1009.87 1010.32 1010.67 1010.87 1010.85 1011.16
1017.00 1016.89 1016.33 1016.33 1016.67 1016.41 1015.98 1015.78 1015.42 1014.99 1014.48 1014.00 1013.74 1013.33 1012.96 1012.53 1012.12 1011.79 1011.60 1011.35 1010.95 1010.47 1010.08 1009.80 1009.35 1009.03 1008.57 1008.29 1008.07 1007.96 1007.68 1007.16 1006.90 1007.55 1008.44 1009.10 1009.68 1010.16 1010.70 1011.16 1011.44 1011.76 1011.84
1017.12 1016.57 1016.65 1016.92 1016.73 1016.43 1016.15 1015.77 1015.40 1015.10 1014.71 1014.22 1013.78 1013.43 1013.00 1012.63 1012.38 1012.03 1011.78 1011.51 1011.26 1010.85 1010.61 1010.14 1009.56 1009.19 1008.98 1008.58 1008.31 1008.15 1007.64 1007.93 1007.15 1007.50 1008.41 1008.98 1009.64 1010.50 1010.87 1011.24 1011.80 1012.09 1012.30
1017.01 1017.17 1017.20 1017.13 1016.76 1016.47 1016.06 1015.79 1015.55 1015.21 1014.76 1014.30 1013.82 1013.46 1013.10 1012.68 1012.53 1012.08 1011.62 1011.43 1011.17 1010.99 1010.55 1010.24 1009.76 1009.69 1009.64 1009.45 1008.75 1008.65 1008.50 1007.82 1007.76 1007.74 1008.57 1009.07 1009.78 1010.45 1010.90 1011.50 1012.07 1012.52 1012.78
1017.80 1017.57 1017.43 1017.24 1016.70 1016.27 1015.64 1015.50 1015.39 1015.01 1014.39 1013.52 1012.83 1012.27 1012.21 1012.28 1012.56 1012.34 1011.91 1011.41 1011.45 1011.18 1010.86 1010.63 1010.36 1010.19 1010.43 1010.42 1010.19 1009.75 1009.27 1008.37 1007.97 1008.18 1008.67 1009.13 1009.68 1010.31 1011.01 1011.73 1012.18 1012.45 1012.37
1018.03 1017.81 1017.58 1017.21 1016.44 1015.71 1015.43 1015.11 1014.67 1014.40 1013.88 1013.20 1012.64 1012.28 1012.40 1012.27 1012.69 1012.45 1012.16 1011.94 1011.76 1011.57 1011.36 1011.15 1011.16 1011.11 1010.95 1010.81 1010.60 1010.18 1009.75 1009.47 1009.27 1009.10 1009.06 1009.27 1009.87 1010.42 1011.09 1011.98 1012.31 1011.99 1011.55
1018.25 1017.87 1017.50 1016.47 1015.97 1015.48 1015.06 1014.60 1014.13 1013.90 1013.68 1013.24 1013.00 1012.82 1012.58 1012.67 1012.82 1012.58 1012.30 1011.97 1011.72 1011.77 1011.91 1011.77 1011.58 1011.52 1011.45 1011.25 1010.94 1010.67 1010.53 1010.32 1010.21 1009.97 1009.73 1009.64 1010.00 1010.71 1011.36 1011.91 1012.26 1012.19 1012.07
1018.17 1017.37 1016.88 1016.47 1015.82 1015.38 1014.84 1014.61 1014.31 1014.00 1013.73 1013.23 1012.98 1012.71 1012.67 1012.74 1012.96 1012.62 1012.23 1011.54 1011.48 1011.75 1012.28 1012.31 1012.12 1011.88 1011.81 1011.16 1010.42 1010.49 1010.73 1010.75 1010.85 1010.44 1010.23 1010.17 1010.66 1011.20 1011.66 1012.16 1012.40 1011.86 1011.80
1017.96 1017.37 1016.78 1016.51 1015.85 1015.42 1015.02 1014.93 1014.63 1013.88 1013.67 1013.33 1013.00 1013.00 1013.28 1013.20 1013.40 1012.99 1012.54 1012.02 1012.08 1012.16 1012.14 1012.52 1012.72 1012.49 1012.10 1011.58 1010.66 1010.51 1010.91 1011.21 1011.17 1011.02 1010.99 1011.22 1011.44 1011.93 1012.21 1012.40 1012.19 1011.18 1011.88
1017.89 1017.59 1016.84 1016.43 1015.93 1015.53 1015.16 1015.02 1014.61 1014.20 1013.97 1013.65 1013.35 1013.31 1013.50 1013.99 1013.91 1013.67 1013.18 1012.42 1012.07 1012.05 1012.35 1012.85 1013.23 1013.21 1013.01 1012.68 1012.13 1011.77 1011.99 1011.55 1011.75 1011.71 1011.74 1011.99 1012.29 1012.65 1012.94 1012.93 1012.34 1012.38 1012.08
1017.48 1017.12 1016.85 1016.47 1015.79 1015.56 1015.55 1015.25 1014.81 1014.63 1014.23 1013.82 1013.75 1013.78 1014.15 1014.59 1014.69 1014.53 1014.10 1013.69 1013.24 1013.10 1013.30 1013.62 1013.65 1013.56 1013.37 1013.06 1012.72 1012.77 1012.38 1011.99 1011.88 1012.33 1012.41 1012.84 1013.13 1013.46 1013.56 1013.67 1013.89 1014.13 1014.30
1017.63 1017.30 1016.91 1016.58 1016.09 1015.83 1015.56 1015.37 1015.15 1014.98 1014.67 1013.99 1014.14 1014.11 1014.29 1014.62 1014.91 1014.86 1014.62 1014.34 1014.05 1013.62 1013.69 1013.96 1013.80 1013.63 1013.44 1013.29 1013.39 1013.13 1012.85 1012.79 1012.72 1013.07 1013.33 1013.71 1014.11 1014.40 1014.49 1014.64 1014.95 1015.23 1015.23
1017.71 1017.44 1017.11 1016.67 1016.73 1016.28 1015.87 1015.89 1015.66 1015.63 1015.72 1015.11 1015.12 1015.09 1014.88 1015.00 1014.94 1014.93 1014.51 1014.15 1014.32 1013.89 1014.12 1014.00 1014.20 1014.15 1014.07 1014.03 1013.79 1013.73 1013.81 1013.80 1013.77 1013.81 1014.10 1014.43 1014.75 1015.09 1015.26 1015.57 1015.60 1015.77 1015.92
1017.98 1017.69 1017.34 1016.80 1016.45 1016.92 1017.22 1017.26 1016.92 1017.74 1017.50 1016.72 1016.56 1016.01 1015.69 1015.59 1015.89 1015.97 1015.54 1014.73 1014.59 1014.65 1014.28 1014.44 1014.51 1014.61 1014.64 1014.63 1014.61 1014.63 1014.59 1014.62 1014.57 1014.74 1014.95 1015.25 1015.59 1015.89 1016.16 1016.16 1016.33 1016.70 1016.87
1018.29 1017.80 1017.55 1017.12 1016.67 1016.53 1017.47 1017.96 1018.51 1018.42 1018.32 1018.19 1017.97 1017.59 1017.04 1017.01 1016.60 1016.38 1016.06 1015.79 1015.43 1015.14 1015.12 1015.10 1015.20 1015.31 1015.39 1015.45 1015.38 1015.41 1015.43 1015.49 1015.53 1015.61 1015.79 1015.97 1016.29 1016.52 1016.73 1016.95 1017.19 1017.51 1017.71
1018.81 1018.65 1018.05 1017.32 1017.00 1017.54 1017.52 1017.60 1018.12 1018.31 1018.66 1018.67 1018.54 1018.24 1017.97 1017.60 1017.20 1016.88 1016.57 1016.26 1015.99 1015.64 1015.57 1015.71 1015.85 1016.02 1016.09 1016.07 1016.17 1016.21 1016.28 1016.40 1016.32 1016.39 1016.61 1016.82 1016.99 1017.16 1017.29 1017.63 1018.00 1018.21 1018.51
1019.23 1019.05 1018.21 1017.94 1018.39 1018.04 1018.19 1018.22 1019.00 1019.13 1019.11 1018.82 1018.82 1018.72 1018.41 1018.05 1017.71 1017.34 1016.97 1016.62 1016.36 1016.20 1016.03 1016.21 1016.49 1016.57 1016.62 1016.69 1016.78 1016.88 1017.00 1017.07 1017.11 1017.18 1017.24 1017.32 1017.48 1017.61 1017.87 1018.30 1018.67 1018.87 1019.09
1018.86 1018.83 1018.43 1018.58 1018.67 1018.68 1018.77 1019.31 1019.83 1019.97 1019.93 1019.78 1019.53 1019.16 1018.92 1018.56 1018.17 1017.83 1017.44 1017.11 1016.90 1016.84 1016.94 1017.04 1017.19 1017.20 1017.29 1017.43 1017.49 1017.57 1017.57 1017.63 1017.69 1017.79 1017.95 1017.98 1018.08 1018.19 1018.61 1019.00 1019.37 1019.54 1019.67
1019.60 1019.62 1019.09 1019.02 1019.14 1019.31 1019.73 1020.25 1020.48 1020.58 1020.61 1020.61 1020.47 1020.40 1019.85 1019.03 1018.75 1018.57 1018.38 1018.11 1017.83 1017.66 1017.59 1017.58 1017.72 1017.75 1017.71 1017.80 1017.88 1018.07 1018.17 1018.32 1018.45 1018.55 1018.62 1018.77 1018.91 1018.95 1019.01 1019.37 1019.90 1020.09 1020.33
1019.70 1019.98 1019.94 1019.80 1019.96 1020.29 1020.63 1021.23 1021.42 1021.39 1021.39 1021.37 1021.19 1021.20 1020.84 1020.19 1019.82 1019.47 1019.23 1019.02 1018.77 1018.50 1018.42 1018.42 1018.30 1018.20 1018.20 1018.34 1018.37 1018.50 1018.85 1019.10 1019.20 1019.21 1019.39 1019.39 1019.24 1019.00 1019.47 1020.12 1020.30 1020.47 1020.44
1020.57 1020.80 1020.81 1020.71 1020.95 1021.28 1021.91 1022.28 1022.32 1022.23 1022.18 1022.14 1021.98 1021.69 1021.34 1020.78 1020.38 1020.21 1020.09 1019.92 1019.69 1019.44 1019.26 1018.90 1018.92 1018.89 1018.67 1018.61 1018.79 1019.14 1019.26 1019.56 1019.45 1019.39 1019.48 1019.42 1019.50 1019.81 1019.92 1019.96 1020.16 1020.29 1020.27
1021.04 1021.30 1021.56 1021.86 1022.07 1022.62 1022.78 1022.97 1023.03 1023.01 1022.96 1022.88 1022.61 1022.22 1021.91 1021.57 1021.09 1020.67 1020.65 1020.55 1020.36 1020.37 1020.13 1019.42 1019.22 1019.17 1019.20 1019.18 1019.47 1019.74 1019.56 1019.32 1019.13 1019.44 1019.68 1019.59 1019.83 1019.87 1019.54 1019.28 1019.82 1020.52 1020.82
1021.67 1021.77 1021.72 1021.78 1022.21 1022.50 1022.98 1023.57 1023.72 1023.86 1023.74 1023.46 1023.06 1022.39 1021.77 1021.44 1021.35 1021.31 1021.05 1020.88 1020.64 1020.64 1020.59 1020.66 1020.64 1020.17 1020.32 1020.39 1020.20 1020.27 1020.33 1019.98 1019.51 1019.41 1019.46 1020.15 1020.65 1020.64 1020.44 1020.48 1020.91 1021.14 1020.49
1022.47 1022.53 1022.59 1022.59 1022.71 1023.08 1023.74 1023.86 1023.90 1023.85 1023.50 1022.98 1022.44 1021.97 1021.66 1021.66 1021.64 1021.61 1021.38 1021.05 1021.19 1021.07 1020.99 1021.24 1021.39 1021.45 1021.43 1021.25 1021.16 1021.30 1021.39 1021.01 1020.84 1020.80 1020.76 1020.95 1020.94 1020.81 1020.24 1019.91 1020.03 1020.13 1019.86
1023.22 1023.36 1023.29 1023.18 1023.18 1023.25 1023.43 1023.63 1023.47 1023.28 1023.07 1022.94 1022.75 1022.47 1022.16 1021.94 1021.86 1021.71 1021.47 1021.25 1021.35 1021.36 1021.45 1021.53 1021.64 1021.64 1021.69 1022.14 1022.27 1022.23 1021.89 1021.63 1021.22 1021.08 1020.73 1020.30 1020.34 1020.48 1020.33 1020.19 1020.10 1020.03 1020.11
Wind_Speed
18 17 16 15 13 12 10 11 7 9 10 9 8 8 6 5 5 5 5 5 6 6 6 6 4 3 1 4 2 5 5 5 4 3 2 6 7 10 7 9 7 8 10
18 14 14 13 12 10 10 10 10 9 9 8 9 7 7 6 6 6 6 6 6 6 5 7 4 2 3 1 3 5 8 5 4 5 2 2 6 9 8 9 5 7 9
15 14 14 11 9 7 10 8 8 8 8 8 7 7 6 5 5 5 6 6 6 7 7 7 7 6 4 3 2 5 7 6 6 3 4 2 3 8 8 8 8 8 6
13 13 10 8 6 8 7 7 7 6 6 7 6 6 7 7 6 6 4 5 5 6 6 7 7 5 5 6 2 4 6 5 4 5 5 5 6 6 6 7 6 4 5
14 8 7 6 7 7 7 7 6 6 6 6 5 4 4 4 5 7 3 5 3 5 5 6 2 12 16 15 6 7 3 3 2 5 5 6 7 8 8 4 5 5 3
8 8 7 5 5 5 6 4 4 6 7 7 6 5 2 4 8 9 10 6 5 5 7 6 8 9 12 14 13 16 13 6 4 3 3 8 9 7 7 6 5 3 3
7 6 4 4 7 6 5 7 7 7 7 7 7 7 7 10 11 9 7 4 5 6 7 7 7 7 10 7 10 12 16 17 14 3 5 5 10 8 9 7 4 2 6
4 4 5 7 8 6 4 5 6 6 7 7 9 9 8 9 9 8 5 4 4 8 7 6 5 6 5 4 4 8 8 12 10 5 4 5 10 9 7 6 6 5 6
2 4 7 8 8 9 8 8 8 7 5 6 7 7 7 11 12 10 3 6 7 11 7 7 6 6 8 8 5 6 8 9 9 15 12 13 14 13 10 7 5 5 5
8 9 8 6 6 7 7 7 6 5 6 5 6 8 12 11 14 13 10 6 8 5 8 8 12 10 10 14 9 8 9 7 7 9 7 12 12 10 10 4 3 0 6
5 6 7 5 6 7 8 5 6 7 7 7 7 8 10 13 14 13 13 5 5 5 8 7 7 9 10 10 10 10 7 6 10 7 7 7 8 8 5 3 5 8 4
5 4 7 7 8 8 9 8 5 7 8 7 9 8 8 9 12 11 11 12 10 8 7 5 5 6 10 13 10 8 9 6 7 6 7 7 8 7 7 9 11 11 10
8 6 8 9 9 8 6 6 5 8 8 8 9 7 7 6 5 6 9 9 10 5 5 4 1 5 3 10 12 11 9 7 6 7 7 8 7 7 8 9 11 13 15
8 9 7 7 8 9 7 8 9 9 8 8 11 8 7 7 7 3 4 3 6 3 7 4 8 9 10 8 8 9 8 7 7 8 9 8 8 6 7 6 7 9 11
7 6 7 6 6 8 11 10 9 11 11 11 10 9 8 7 8 7 9 8 7 7 4 6 6 6 6 7 7 7 7 7 8 7 8 7 7 8 6 6 9 8 9
6 7 8 7 6 8 5 8 8 9 12 13 12 9 5 9 8 7 7 8 9 10 6 6 6 6 7 6 6 6 6 8 6 6 6 7 6 6 7 7 7 8 8
9 10 5 5 9 8 6 5 5 5 11 9 12 11 9 7 11 11 10 9 10 6 6 7 6 6 6 6 6 6 7 6 8 8 8 6 7 7 8 7 6 6 7
5 2 6 8 7 6 7 10 9 8 7 7 8 9 11 12 13 13 10 4 6 8 7 7 7 6 6 6 6 6 6 6 6 7 7 6 7 7 7 7 6 7 7
7 6 5 8 7 7 9 11 7 7 7 8 8 10 12 12 11 12 12 8 7 6 6 6 5 6 7 6 6 7 7 7 7 7 7 6 6 7 8 7 8 9 8
8 6 7 9 8 10 10 7 8 7 8 8 7 8 8 9 9 9 9 8 7 7 6 6 6 5 6 7 6 5 6 7 8 7 6 7 6 7 6 8 8 8 8
7 8 8 9 9 10 10 10 8 8 8 7 7 9 11 8 8 8 8 8 7 7 7 7 7 7 8 8 6 6 7 7 6 7 7 6 7 9 10 9 8 7 8
9 9 9 9 10 10 10 8 8 8 8 8 7 8 10 8 8 9 10 9 8 8 7 7 7 6 6 7 8 6 8 6 7 5 7 8 10 9 8 8 8 8 8
9 9 9 9 10 11 9 9 8 8 8 9 9 8 8 8 8 9 8 7 7 7 6 7 5 6 7 7 8 7 7 7 8 8 10 9 9 9 8 9 10 9 6
10 10 9 10 10 9 11 10 8 9 8 7 6 5 6 8 9 8 9 8 8 9 9 9 7 10 9 8 8 6 6 8 7 9 12 11 10 7 9 11 10 9 5
10 9 9 9 9 10 10 8 7 6 6 6 7 9 10 11 10 10 8 8 6 8 10 8 7 9 10 10 12 12 7 8 6 6 8 12 11 9 9 9 10 9 8
10 9 8 8 8 9 9 8 7 8 9 9 10 10 11 11 11 11 11 11 10 12 13 10 12 15 15 11 11 7 5 6 9 6 10 9 11 9 8 9 10 8 9
Wind_Direction
323 322 317 318 317 322 319 324 316 318 317 330 334 338 350 337 331 344 343 330 323 323 318 307 296 224 307 271 268 265 251 225 228 78 61 127 126 129 121 118 114 92 86
321 323 316 319 319 335 320 341 327 331 337 337 347 349 351 352 349 349 341 335 327 319 327 312 308 329 269 20 254 255 258 221 197 152 112 119 135 123 119 115 114 89 82
334 318 311 329 349 325 333 331 334 337 337 356 349 349 338 337 346 352 339 330 320 325 329 321 334 335 340 317 276 305 285 252 202 138 126 119 119 131 127 111 106 101 101
313 320 8 356 339 337 326 329 345 347 347 346 353 344 346 356 352 332 332 321 326 330 318 315 299 311 341 322 296 233 253 281 265 151 130 133 134 140 126 132 107 95 78
323 12 350 337 345 339 346 353 351 334 326 324 313 305 319 334 1 336 326 314 6 340 325 349 21 62 48 38 2 358 283 241 255 133 138 139 141 147 146 109 111 105 70
351 346 3 355 316 347 352 10 303 297 287 292 320 331 50 48 359 347 352 34 25 10 18 31 36 50 66 55 55 53 43 8 37 121 139 152 148 135 124 132 133 142 131
345 1 1 322 314 334 338 315 356 356 348 360 3 24 38 44 4 352 2 44 46 32 29 50 55 49 46 38 37 51 53 49 47 13 128 136 145 134 134 131 129 115 87
354 15 319 321 345 336 337 344 10 23 24 10 19 25 31 52 9 347 350 59 104 94 54 52 57 55 32 44 46 63 50 49 38 37 52 96 128 125 123 126 128 137 102
359 348 350 348 5 356 12 17 18 22 25 24 26 25 40 47 11 356 353 62 69 83 70 44 38 53 19 348 69 122 69 58 52 52 72 82 94 105 114 121 154 195 126
353 348 1 10 9 12 31 29 9 26 32 15 33 37 38 53 25 8 7 56 63 52 77 60 42 38 15 359 26 41 60 58 57 57 66 77 85 86 83 64 151 267 109
355 351 349 15 21 9 1 13 12 19 20 27 30 41 63 30 43 19 9 40 53 61 57 58 54 25 26 8 32 47 47 82 83 62 69 70 72 71 68 61 4 13 93
52 47 26 14 14 20 23 23 21 23 19 39 52 55 65 46 28 43 28 27 18 63 58 52 65 47 51 26 60 45 28 61 92 63 68 69 81 67 62 69 65 64 59
66 35 29 17 11 9 20 35 22 22 12 14 44 46 37 60 31 66 47 41 24 65 70 73 23 3 36 71 46 40 45 66 83 86 77 76 75 85 87 85 82 78 67
35 32 27 26 25 30 23 16 29 25 22 19 16 34 40 45 29 45 350 156 178 162 174 94 75 69 55 48 45 52 54 57 73 84 82 82 87 78 77 71 87 78 71
27 24 5 7 54 67 51 25 54 48 27 14 16 9 32 28 27 357 14 18 15 31 42 54 58 55 53 54 50 51 50 57 66 72 80 80 83 81 68 67 74 80 84
352 8 13 349 351 68 88 93 67 75 53 39 28 30 50 18 352 18 24 38 35 40 59 66 63 62 58 55 58 57 52 56 66 76 75 80 78 83 81 78 80 82 88
12 16 2 356 30 24 24 43 83 76 80 53 26 31 24 26 28 26 26 49 31 54 67 67 65 64 63 53 62 61 68 63 77 80 83 86 89 88 89 85 84 83 77
46 42 27 39 48 33 37 56 36 31 17 19 31 21 23 20 16 18 6 11 44 42 54 72 72 58 56 59 62 67 71 73 74 78 78 82 87 91 85 84 78 89 89
74 63 54 54 44 48 55 53 43 31 28 25 15 12 6 5 14 25 18 35 38 63 68 71 62 58 63 60 61 65 66 68 77 82 76 78 85 91 81 79 79 77 86
71 15 25 61 50 59 63 62 44 36 36 32 23 9 359 28 31 28 31 32 34 41 47 67 75 81 71 70 74 72 69 65 75 76 78 74 77 94 106 101 84 88 84
66 67 47 67 60 54 57 51 42 40 35 31 21 20 10 17 19 29 32 35 35 37 54 60 63 70 64 73 91 83 71 73 69 77 85 89 109 93 86 94 101 105 104
68 61 58 60 60 60 62 50 47 41 33 33 26 15 5 23 23 37 37 36 38 42 47 73 74 68 68 69 76 86 83 82 100 117 93 101 98 109 118 122 117 120 104
79 87 90 88 78 73 58 49 47 37 30 27 18 13 23 35 24 37 45 42 41 44 49 69 74 81 63 67 70 90 104 100 90 106 109 104 99 96 102 107 103 93 113
74 78 75 77 81 89 81 68 60 51 39 25 9 8 42 67 62 59 46 45 54 61 55 56 51 52 48 57 77 74 76 93 88 79 96 96 105 98 87 81 91 122 116
71 77 81 82 84 90 104 99 81 73 70 62 62 59 64 70 79 72 54 70 71 64 63 67 62 61 58 62 72 76 56 45 69 137 102 96 109 128 118 106 104 108 113
84 90 92 91 89 86 88 87 77 64 60 63 60 56 56 57 61 66 68 75 73 67 74 74 69 64 69 61 63 58 43 46 90 78 104 104 102 101 102 99 89 79 68